Location: Riceville
(35.1231°N, 90.2259°W)
Time: 05:49:23
(UTC+00:00)

Daily predictions for brighter satellites

Satellite Brightness Start Highest point End
(mag) Time Altitude Azimuth Time Altitude Azimuth Time Altitude Azimuth
Gbstr 26 Del rocket 3.2 00:00:10 10° SSW 00:04:08 43° SE 00:05:34 29° E
Cosmos 1354 Rocket 4.3 00:02:00 10° S 00:07:02 47° ESE 00:10:25 20° NE
Meteor 1-20 Rocket 4.2 00:02:41 10° N 00:08:02 53° E 00:13:20 10° SSE
Spot 4 Rocket 4.3 00:04:39 10° SE 00:09:27 43° ENE 00:14:16 10° N
Cosmos 1743 2.1 00:06:48 10° N 00:10:02 77° E 00:13:16 10° S
Cosmos 1697 Rocket 2.9 00:04:43 10° S 00:10:03 48° ESE 00:13:23 22° NE
IRIDIUM 114 4.3 00:06:57 10° N 00:12:11 89° E 00:17:24 10° S
BREEZE-M DEB (TANK) 4.2 00:00:21 10° SSW 00:12:58 53° SE 00:15:42 27° ENE
SL-19 R/B 4.5 00:09:10 10° SE 00:14:00 40° ENE 00:19:01 10° N
Intelsat 5-1 Rocket 4.1 00:13:41 10° SSW 00:14:40 11° S 00:15:49 10° SSE
Cosmos 1606 Rocket 3.4 00:15:42 10° S 00:20:01 72° E 00:23:21 17° NNE
SJ-7 4.4 00:17:38 10° SSE 00:25:13 - N 00:20:41 44° ESE
IRIDIUM 103 4.5 00:16:08 10° N 00:21:21 74° W 00:26:32 10° S
Okean 1-7 Rocket 3.5 00:17:27 10° N 00:21:48 58° E 00:26:04 10° SSE
Resurs 1-3 3.5 00:20:00 10° SSE 00:24:10 54° ENE 00:28:22 10° N
Cosmos 1655 Rocket 4.3 00:19:11 10° N 00:25:05 42° E 00:30:54 10° SSE
Cosmos 1777 Rocket 4.5 00:22:56 10° SSW 00:28:07 60° WNW 00:33:11 11° N
Cosmos 1570 Rocket 4.4 00:24:30 10° NNW 00:29:46 65° WSW 00:35:00 10° S
Meteor 1-25 Rocket 4.2 00:25:13 10° N 00:31:01 66° E 00:36:44 10° SSE
NOSS 3-2 (C) 3.4 00:26:47 10° SW 00:31:31 59° NW 00:34:58 22° NNE
ARIANE 6 FM1 Upper Stage 4.3 00:34:03 10° NW 00:37:41 34° WSW 00:41:22 10° S
SPOT 1/Viking Rocket 4.1 00:41:04 10° S 00:46:09 58° W 00:51:18 10° NNW
Cosmos 1726 Rocket 3.8 00:43:52 10° SSW 00:48:28 74° W 00:50:30 33° N
Cosmos 2297 Rocket 2.0 00:42:54 10° NNW 00:48:36 79° ENE 00:54:09 10° SSE
NOSS 2-3 (E) 3.8 00:45:36 10° SSW 00:48:30 49° SSW 00:48:30 49° SSW
NOAA 6 3.8 00:45:42 10° SSE 00:50:47 75° ENE 00:55:54 10° N
OceanSat 1 rocket 4.5 00:47:08 10° SSE 00:51:56 88° ENE 00:56:42 10° NNW
Cosmos 1461 3.7 00:50:11 10° SW 00:53:50 41° WNW 00:54:05 40° NW
NOSS 2-3 (D) 4.1 00:50:36 10° SSW 00:53:17 42° SSW 00:53:17 42° SSW
Helios 1A Rocket 3.9 00:55:08 33° WNW 00:55:22 34° WNW 00:58:28 10° SW
BREEZE-M DEB (TANK) 4.0 00:52:53 10° WSW 00:56:27 32° WNW 00:56:27 32° WNW
Meteor 2-20 4.4 00:52:28 10° S 00:58:38 84° W 01:03:10 19° N
CZ-4C R/B 3.2 00:51:37 10° NNW 00:58:48 48° NE 00:59:10 48° ENE
YAOGAN 1 3.6 01:00:40 10° S 01:04:43 44° W 01:08:48 10° NNW
Cosmos 1980 Rocket 2.5 01:04:43 10° S 01:09:03 52° S 01:09:03 52° S
H-2A R/B 3.3 01:23:37 10° WSW 01:25:15 31° SW 01:25:15 31° SW
USA 238 DEB 3.6 01:24:09 10° SW 01:29:11 65° SW 01:29:11 65° SW
USA 238 3.6 01:24:15 10° SSW 01:29:14 64° SW 01:29:14 64° SW
Cosmos 2227 Rocket 4.3 01:33:31 10° NNW 01:34:32 16° NNW 01:34:32 16° NNW
CZ-4C R/B 4.5 02:39:58 10° NW 02:44:13 31° WNW 02:44:13 31° WNW
Atlas Centaur 2 4.3 09:27:36 29° SE 09:27:36 29° SE 09:31:42 10° SE
CZ-3 Stage 3 3.9 10:03:34 60° WSW 10:05:59 74° S 10:40:49 10° E
Cosmos 1980 Rocket 4.4 10:04:01 14° NNE 10:06:45 19° ENE 10:10:40 10° ESE
Timation 1 Rocket 4.4 10:25:40 39° S 10:27:55 72° ESE 10:33:52 10° NNE
Centaur AC-112 4.4 10:29:42 33° SSW 10:31:30 42° SSE 10:48:15 10° E
Cosmos 1503 Rocket 4.0 10:33:23 74° ESE 10:33:23 74° ESE 10:38:14 10° SSE
Cosmos 1354 Rocket 4.5 10:36:49 40° NNE 10:38:24 57° ENE 10:43:31 10° SSE
Cosmos 1544 Rocket 4.1 10:39:22 56° ENE 10:39:41 58° E 10:44:00 10° SSE
Cosmos 1697 Rocket 2.5 10:49:33 61° NW 10:50:33 78° WSW 10:56:10 10° SSE
IRS-1D 3.7 10:46:57 10° NNE 10:51:56 67° ESE 10:56:59 10° S
Atlas 2A Centaur Rocket 3.7 10:54:03 18° S 10:54:03 18° S 10:55:10 10° SSE
SJ-11-01 4.1 10:50:52 10° N 10:55:34 79° WNW 11:00:14 10° SSW
Meteor 2-12 Rocket 4.4 10:51:05 10° SSW 10:57:07 59° W 11:03:09 10° N
USA 238 DEB 4.0 10:54:14 38° NW 10:57:24 66° WSW 11:05:29 10° SSE
USA 238 4.0 10:54:18 38° NW 10:57:31 67° WSW 11:05:37 10° SSE
Cosmos 1777 Rocket 4.3 10:59:16 46° SW 10:59:16 46° SW 11:03:32 10° S
Nadezhda 4 Rocket 4.5 10:53:07 10° S 10:59:19 63° E 11:05:32 10° NNE
COSMOS 2406 4.4 10:55:18 10° S 11:00:36 43° ESE 11:05:56 10° NE
Cosmos 468 Rocket 3.9 11:00:58 10° SSW 11:06:10 63° WNW 11:11:22 10° N
Delta 2 Rocket 3.3 11:07:57 48° ENE 11:07:57 48° ENE 11:10:13 10° E
Atlas Centaur 2 4.3 11:09:32 18° WSW 11:12:28 22° SSW 11:18:26 10° SSE
Cosmos 1782 3.8 11:14:26 27° SSW 11:14:26 27° SSW 11:16:17 10° SSW
CZ-4 R/B 3.6 11:13:08 10° N 11:17:46 75° WNW 11:22:21 10° SSW
CZ-3 R/B 3.4 11:08:46 23° W 11:19:13 44° SSW 11:25:55 10° SE
OPS 6432 4.4 11:19:53 55° SW 11:19:53 55° SW 11:23:09 10° SSE
Cosmos 1536 Rocket 3.6 11:15:27 10° SSW 11:19:47 54° W 11:24:08 10° N
Cosmos 2082 Rocket 2.1 11:14:22 10° SSW 11:19:56 63° WNW 11:25:30 10° NNE
Helios 1A Rocket 3.5 11:19:31 10° SE 11:22:40 43° ENE 11:25:52 10° N
BREEZE-M DEB (TANK) 4.1 11:23:10 15° N 11:24:00 16° NNE 11:26:57 10° ENE
SKYMED 2 3.4 11:26:51 10° S 11:31:10 75° W 11:35:31 10° NNW
BREEZE-M DEB (TANK) 3.6 11:33:08 20° NW 11:37:51 63° NNE 11:41:08 10° ESE
Cosmos 2098 Rocket 4.0 11:32:57 10° NNW 11:38:22 45° W 11:43:50 10° SSW
SL-8 R/B 3.9 11:39:29 21° NW 11:42:39 65° NE 11:47:22 10° ESE
Cosmos 372 Rocket 4.0 11:39:02 10° NNW 11:44:08 81° ENE 11:49:11 10° SSE
Cosmos 2369 3.8 11:43:31 10° NNW 11:49:14 78° ENE 11:54:53 10° SSE
Tiangong -0.7 11:48:48 19° NW 11:50:15 27° N 11:53:06 10° ENE
Cosmos 1980 Rocket 2.3 11:45:48 11° NNW 11:51:02 53° WSW 11:56:26 10° S
SL-24 R/B - RUBIN 2 3.4 11:47:28 13° NNW 11:51:15 83° WSW 11:55:41 10° SSE
USA 267 4.1 11:46:00 10° NE 11:52:21 53° SE 11:58:41 10° SSW
